Location: Newark
(34.9500°N, 139.9667°E)
Time: 15:16:42
(UTC+00:00)

Vanguard 1 Rocket - Pass Details

Date: 08 December 2019
Orbit: 650 x 4226 km, 34.3° (Epoch: 22 January)

Event Time Altitude Azimuth Distance (km) Brightness Sun altitude
Rises 11:59:23 0° 242° (WSW) 7,786 12.5 -54.7°
Reaches altitude 10° 12:05:24 10° 240° (WSW) 6,304 11.9 -55.9°
Enters shadow 12:15:49 37° 231° (SW) 3,540 10.3 -58.0°
Maximum altitude 12:22:47 67° 163° (SSE) 2,135 - -59.4°
Drops below altitude 10° 12:31:24 10° 82° (E) 3,340 - -61.1°
Sets 12:33:36 0° 80° (E) 4,030 - -61.5°
